Location: Home
(42.5358°N, 72.7383°W)
Time: 15:02:39
(UTC-05:00)

Explorer 11/Cluster Stage 4 - Pass Details

Date: 23 December 2025
Orbit: 463 x 1179 km, 28.8° (Epoch: 21 January)

Event Time Altitude Azimuth Distance (km) Brightness Sun altitude
Rises 17:34:41 0° 255° (WSW) 3,933 12.2 -12.9°
Reaches altitude 10° 17:38:00 10° 242° (WSW) 3,037 11.0 -13.4°
Maximum altitude 17:43:50 24° 193° (SSW) 2,217 9.2 -14.4°
Drops below altitude 10° 17:49:44 10° 143° (SE) 3,065 9.4 -15.5°
Sets 17:53:06 0° 130° (SE) 3,977 9.9 -16.1°
